{"data":{"norad_id":64813,"epoch":"2026-05-25T03:27:30.481920Z","epoch_age_seconds":55709,"freshness":"FRESH","line1":"1 64813U 25150Z   26145.14410280  .00001898  00000+0  16683-3 0  9995","line2":"2 64813  70.0003 301.8919 0002810 269.4720  90.6117 14.98334980 47965","mean_motion":14.9833498,"eccentricity":0.000281,"inclination_deg":70.0003,"raan_deg":301.8919,"arg_perigee_deg":269.472,"mean_anomaly_deg":90.6117,"bstar":0.00016683,"rev_number":4796,"period_min":96.106679695885,"perigee_km":570.08749087297,"apogee_km":573.99349062277,"semimajor_km":6950.1774907479,"source":"CELESTRAK","updated_at":"2026-05-25T13:38:20.570057Z"}}